Time,TemperatureF,DewpointF,PressureIn,WindDirection,WindDirectionDegrees,WindSpeedMPH,WindSpeedGustMPH,Humidity,HourlyPrecipIn,Conditions,Clouds,dailyrainin,SoftwareType,DateUTC
2013-01-09 00:22:00,55.0,54.0,-100.00,NE,47,6.0,-999.0,94,0.00,,,-99.99,,2013-01-09 05:22:00,
2013-01-09 00:33:00,55.0,54.0,-100.00,NE,47,6.0,-999.0,94,0.00,,,-99.99,,2013-01-09 05:33:00,
2013-01-09 00:43:00,55.0,54.0,-100.00,NE,47,6.0,-999.0,94,0.00,,,-99.99,,2013-01-09 05:43:00,
2013-01-09 01:22:00,54.0,53.0,-100.00,NNE,25,5.0,-999.0,95,0.00,,,-99.99,,2013-01-09 06:22:00,
2013-01-09 01:32:00,54.0,53.0,-100.00,NNE,25,5.0,-999.0,95,0.00,,,-99.99,,2013-01-09 06:32:00,
2013-01-09 01:42:00,54.0,53.0,-100.00,NNE,25,5.0,-999.0,95,0.00,,,-99.99,,2013-01-09 06:42:00,
2013-01-09 02:22:00,56.0,53.0,-100.00,NE,39,5.0,-999.0,93,0.00,,,-99.99,,2013-01-09 07:22:00,
2013-01-09 02:32:00,56.0,53.0,-100.00,NE,39,5.0,-999.0,93,0.00,,,-99.99,,2013-01-09 07:32:00,
2013-01-09 02:42:00,56.0,53.0,-100.00,NE,39,5.0,-999.0,93,0.00,,,-99.99,,2013-01-09 07:42:00,
2013-01-09 03:22:00,56.0,53.0,-100.00,North,356,4.0,-999.0,92,0.00,,,-99.99,,2013-01-09 08:22:00,
2013-01-09 03:32:00,56.0,53.0,-100.00,North,356,4.0,-999.0,92,0.00,,,-99.99,,2013-01-09 08:32:00,
2013-01-09 03:43:00,56.0,53.0,-100.00,North,356,4.0,-999.0,92,0.00,,,-99.99,,2013-01-09 08:43:00,
2013-01-09 04:22:00,55.0,53.0,-100.00,NE,36,6.0,-999.0,92,0.00,,,-99.99,,2013-01-09 09:22:00,
2013-01-09 04:32:00,55.0,53.0,-100.00,NE,36,6.0,-999.0,92,0.00,,,-99.99,,2013-01-09 09:32:00,
2013-01-09 04:42:00,55.0,53.0,-100.00,NE,36,6.0,-999.0,92,0.00,,,-99.99,,2013-01-09 09:42:00,
2013-01-09 05:22:00,58.0,54.0,-100.00,NE,43,6.0,-999.0,89,0.00,,,-99.99,,2013-01-09 10:22:00,
2013-01-09 05:32:00,58.0,54.0,-100.00,NE,43,6.0,-999.0,89,0.00,,,-99.99,,2013-01-09 10:32:00,
2013-01-09 05:42:00,58.0,54.0,-100.00,NE,43,6.0,-999.0,89,0.00,,,-99.99,,2013-01-09 10:42:00,
2013-01-09 06:22:00,59.0,55.0,-100.00,NE,44,9.0,-999.0,86,0.00,,,-99.99,,2013-01-09 11:22:00,
2013-01-09 06:33:00,59.0,55.0,-100.00,NE,44,9.0,-999.0,86,0.00,,,-99.99,,2013-01-09 11:33:00,
2013-01-09 06:42:00,59.0,55.0,-100.00,NE,44,9.0,-999.0,86,0.00,,,-99.99,,2013-01-09 11:42:00,
2013-01-09 07:23:00,58.0,55.0,-100.00,NE,36,5.0,-999.0,89,0.00,,,-99.99,,2013-01-09 12:23:00,
2013-01-09 07:33:00,58.0,55.0,-100.00,NE,36,5.0,-999.0,89,0.00,,,-99.99,,2013-01-09 12:33:00,
2013-01-09 07:43:00,58.0,55.0,-100.00,NE,36,5.0,-999.0,89,0.00,,,-99.99,,2013-01-09 12:43:00,
2013-01-09 08:23:00,60.0,56.0,-100.00,NE,43,9.0,-999.0,87,0.00,,,-99.99,,2013-01-09 13:23:00,
2013-01-09 08:33:00,60.0,56.0,-100.00,NE,43,9.0,-999.0,87,0.00,,,-99.99,,2013-01-09 13:33:00,
2013-01-09 08:43:00,60.0,56.0,-100.00,NE,43,9.0,-999.0,87,0.00,,,-99.99,,2013-01-09 13:43:00,
2013-01-09 09:23:00,61.0,56.0,-100.00,NE,55,10.0,-999.0,84,0.00,,,-99.99,,2013-01-09 14:23:00,
2013-01-09 09:33:00,61.0,56.0,-100.00,NE,55,10.0,-999.0,84,0.00,,,-99.99,,2013-01-09 14:33:00,
2013-01-09 09:43:00,61.0,56.0,-100.00,NE,55,10.0,-999.0,84,0.00,,,-99.99,,2013-01-09 14:43:00,
2013-01-09 10:23:00,60.0,55.0,-100.00,ENE,59,10.0,-999.0,82,0.00,,,-99.99,,2013-01-09 15:23:00,
2013-01-09 10:33:00,60.0,55.0,-100.00,ENE,59,10.0,-999.0,82,0.00,,,-99.99,,2013-01-09 15:33:00,
2013-01-09 10:43:00,60.0,55.0,-100.00,ENE,59,10.0,-999.0,82,0.00,,,-99.99,,2013-01-09 15:43:00,
2013-01-09 11:23:00,61.0,54.0,-100.00,ENE,61,10.0,-999.0,80,0.00,,,-99.99,,2013-01-09 16:23:00,
2013-01-09 11:33:00,61.0,54.0,-100.00,ENE,61,10.0,-999.0,80,0.00,,,-99.99,,2013-01-09 16:33:00,
2013-01-09 11:43:00,61.0,54.0,-100.00,ENE,61,10.0,-999.0,80,0.00,,,-99.99,,2013-01-09 16:43:00,
2013-01-09 12:23:00,61.0,54.0,-100.00,ENE,64,10.0,-999.0,79,0.00,,,-99.99,,2013-01-09 17:23:00,
2013-01-09 12:33:00,61.0,54.0,-100.00,ENE,64,10.0,-999.0,79,0.00,,,-99.99,,2013-01-09 17:33:00,
2013-01-09 12:43:00,61.0,54.0,-100.00,ENE,64,10.0,-999.0,79,0.00,,,-99.99,,2013-01-09 17:43:00,
2013-01-09 13:24:00,61.0,54.0,-100.00,ENE,63,9.0,-999.0,78,0.00,,,-99.99,,2013-01-09 18:24:00,
2013-01-09 13:33:00,61.0,54.0,-100.00,ENE,63,9.0,-999.0,78,0.00,,,-99.99,,2013-01-09 18:33:00,
2013-01-09 13:43:00,61.0,54.0,-100.00,ENE,63,9.0,-999.0,78,0.00,,,-99.99,,2013-01-09 18:43:00,
2013-01-09 14:23:00,64.0,55.0,-100.00,NE,55,9.0,-999.0,73,0.00,,,-99.99,,2013-01-09 19:23:00,
2013-01-09 14:33:00,64.0,55.0,-100.00,NE,55,9.0,-999.0,73,0.00,,,-99.99,,2013-01-09 19:33:00,
2013-01-09 14:43:00,64.0,55.0,-100.00,NE,55,9.0,-999.0,73,0.00,,,-99.99,,2013-01-09 19:43:00,
2013-01-09 15:23:00,65.0,55.0,-100.00,ENE,59,10.0,-999.0,69,0.00,,,-99.99,,2013-01-09 20:23:00,
2013-01-09 15:33:00,65.0,55.0,-100.00,ENE,59,10.0,-999.0,69,0.00,,,-99.99,,2013-01-09 20:33:00,
2013-01-09 15:43:00,65.0,55.0,-100.00,ENE,59,10.0,-999.0,69,0.00,,,-99.99,,2013-01-09 20:43:00,
2013-01-09 16:23:00,63.0,55.0,-100.00,NE,53,10.0,-999.0,73,0.00,,,-99.99,,2013-01-09 21:23:00,
2013-01-09 16:33:00,63.0,55.0,-100.00,NE,53,10.0,-999.0,73,0.00,,,-99.99,,2013-01-09 21:33:00,
2013-01-09 16:43:00,63.0,55.0,-100.00,NE,53,10.0,-999.0,73,0.00,,,-99.99,,2013-01-09 21:43:00,
2013-01-09 17:23:00,62.0,56.0,-100.00,ENE,57,7.0,-999.0,80,0.00,,,-99.99,,2013-01-09 22:23:00,
2013-01-09 17:33:00,62.0,56.0,-100.00,ENE,57,7.0,-999.0,80,0.00,,,-99.99,,2013-01-09 22:33:00,
2013-01-09 17:43:00,62.0,56.0,-100.00,ENE,57,7.0,-999.0,80,0.00,,,-99.99,,2013-01-09 22:43:00,
2013-01-09 18:23:00,61.0,57.0,-100.00,ENE,62,6.0,-999.0,87,0.00,,,-99.99,,2013-01-09 23:23:00,
2013-01-09 18:33:00,61.0,57.0,-100.00,ENE,62,6.0,-999.0,87,0.00,,,-99.99,,2013-01-09 23:33:00,
2013-01-09 18:43:00,61.0,57.0,-100.00,ENE,62,6.0,-999.0,87,0.00,,,-99.99,,2013-01-09 23:43:00,
2013-01-09 19:22:00,60.0,57.0,-100.00,ENE,63,5.0,-999.0,90,0.00,,,-99.99,,2013-01-10 00:22:00,
2013-01-09 19:32:00,60.0,57.0,-100.00,ENE,63,5.0,-999.0,90,0.00,,,-99.99,,2013-01-10 00:32:00,
2013-01-09 19:42:00,60.0,57.0,-100.00,ENE,63,5.0,-999.0,90,0.00,,,-99.99,,2013-01-10 00:42:00,
2013-01-09 20:22:00,59.0,56.0,-100.00,ENE,76,1.0,-999.0,92,0.00,,,-99.99,,2013-01-10 01:22:00,
2013-01-09 20:33:00,59.0,56.0,-100.00,ENE,76,1.0,-999.0,92,0.00,,,-99.99,,2013-01-10 01:33:00,
2013-01-09 20:43:00,59.0,56.0,-100.00,ENE,76,1.0,-999.0,92,0.00,,,-99.99,,2013-01-10 01:43:00,
2013-01-09 21:22:00,59.0,58.0,-100.00,NE,43,2.0,-999.0,96,0.00,,,-99.99,,2013-01-10 02:22:00,
2013-01-09 21:33:00,59.0,58.0,-100.00,NE,43,2.0,-999.0,96,0.00,,,-99.99,,2013-01-10 02:33:00,
2013-01-09 21:43:00,59.0,58.0,-100.00,NE,43,2.0,-999.0,96,0.00,,,-99.99,,2013-01-10 02:43:00,
2013-01-09 22:22:00,57.0,57.0,-100.00,NE,39,2.0,-999.0,98,0.00,,,-99.99,,2013-01-10 03:22:00,
2013-01-09 22:33:00,57.0,57.0,-100.00,NE,39,2.0,-999.0,98,0.00,,,-99.99,,2013-01-10 03:33:00,
2013-01-09 22:43:00,57.0,57.0,-100.00,NE,39,2.0,-999.0,98,0.00,,,-99.99,,2013-01-10 03:43:00,
2013-01-09 23:22:00,56.0,56.0,-100.00,North,3,2.0,-999.0,100,0.00,,,-99.99,,2013-01-10 04:22:00,
2013-01-09 23:32:00,56.0,56.0,-100.00,North,3,2.0,-999.0,100,0.00,,,-99.99,,2013-01-10 04:32:00,
2013-01-09 23:43:00,56.0,56.0,-100.00,North,3,2.0,-999.0,100,0.00,,,-99.99,,2013-01-10 04:43:00,